Location: Maiden
(35.5760°N, 81.2120°W)
Time: 10:55:42
(UTC-04:00)

Transit 2A - All Passes

Search period start: 04 August 2020 00:00
Search period end: 14 August 2020 00:00
Orbit: 591 x 967 km, 66.7° (Epoch: 03 August)

Date Brightness Start Highest point End Pass type
(mag) Time Alt. Az. Time Alt. Az. Time Alt. Az.
04 Aug - 00:02:04 10° W 00:06:28 22° NW 00:11:09 10° N visible
04 Aug - 07:07:36 10° N 07:13:08 31° NE 07:18:24 10° ESE daylight
04 Aug - 08:50:40 10° NW 08:56:32 42° WSW 09:01:59 10° S daylight
04 Aug - 21:43:38 10° S 21:48:44 39° ESE 21:54:17 10° NE visible
04 Aug - 23:27:04 10° WSW 23:32:03 30° NW 23:37:25 10° N visible
05 Aug - 06:33:51 10° N 06:38:43 23° NE 06:43:23 10° E daylight
05 Aug - 08:16:17 10° NNW 08:22:29 62° WSW 08:28:15 10° SSE daylight
05 Aug - 21:10:15 10° SSE 21:14:47 26° ESE 21:19:40 10° NE visible
05 Aug - 22:52:21 10° SW 22:57:42 42° WNW 23:03:32 10° NNE visible
06 Aug - 06:00:19 10° N 06:04:13 17° NE 06:08:00 10° E visible
06 Aug - 07:42:03 10° NNW 07:48:24 89° WSW 07:54:16 10° SSE daylight
06 Aug - 09:28:56 10° W 09:30:36 11° W 09:32:13 10° WSW daylight
06 Aug - 20:37:20 10° SE 20:40:54 17° ESE 20:44:40 10° ENE daylight
06 Aug - 22:17:53 10° SW 22:23:25 61° WNW 22:29:32 10° NNE visible
07 Aug - 00:06:25 10° NW 00:08:04 11° NW 00:09:44 10° NNW visible
07 Aug - 05:27:16 10° NNE 05:29:39 12° NE 05:31:59 10° ENE visible
07 Aug - 07:07:56 10° NNW 07:14:13 65° ENE 07:20:03 10° SE daylight
07 Aug - 08:52:51 10° WNW 08:56:46 18° WSW 09:00:30 10° SW daylight
07 Aug - 20:05:41 10° ESE 20:07:04 11° E 20:08:30 10° E daylight
07 Aug - 21:43:39 10° SSW 21:49:15 88° WNW 21:55:26 10° NNE visible
07 Aug - 23:30:06 10° WNW 23:33:28 15° NW 23:36:59 10° N visible
08 Aug - 06:33:55 10° NNW 06:39:58 45° ENE 06:45:36 10° SE daylight
08 Aug - 08:17:50 10° NW 08:22:52 26° WSW 08:27:37 10° SSW daylight
08 Aug - 21:09:38 10° SSW 21:15:08 64° ESE 21:21:12 10° NNE visible
08 Aug - 22:54:38 10° W 22:58:57 21° NW 23:03:31 10° N visible
09 Aug - 06:00:00 10° N 06:05:38 33° NE 06:10:56 10° ESE visible
09 Aug - 07:43:12 10° NW 07:48:55 39° WSW 07:54:14 10° S daylight
09 Aug - 20:35:53 10° S 20:41:07 43° ESE 20:46:50 10° NE visible
09 Aug - 22:19:35 10° WSW 22:24:31 29° NW 22:29:49 10° N visible
10 Aug - 05:26:13 10° N 05:31:13 24° NE 05:35:58 10° ESE visible
10 Aug - 07:08:47 10° NW 07:14:55 57° WSW 07:20:34 10° S daylight
10 Aug - 20:02:24 10° SSE 20:07:09 29° ESE 20:12:15 10° NE daylight
10 Aug - 21:44:49 10° SW 21:50:09 40° NW 21:55:58 10° NNE visible
11 Aug - 04:52:39 10° N 04:56:44 18° NE 05:00:41 10° E visible
11 Aug - 06:34:31 10° NNW 06:40:50 83° WSW 06:46:37 10° SSE daylight
11 Aug - 19:29:22 10° SSE 19:33:15 19° ESE 19:37:22 10° ENE daylight
11 Aug - 21:10:18 10° SW 21:15:52 57° WNW 21:21:59 10° NNE visible
11 Aug - 22:59:32 10° NW 23:00:36 10° NW 23:01:40 10° NNW visible
12 Aug - 04:19:27 10° NNE 04:22:10 13° NE 04:24:49 10° ENE visible
12 Aug - 06:00:22 10° NNW 06:06:39 69° ENE 06:12:27 10° SE visible
12 Aug - 07:45:36 10° WNW 07:49:07 16° WSW 07:52:30 10° SW daylight
12 Aug - 18:57:10 10° ESE 18:59:24 12° E 19:01:42 10° ENE daylight
12 Aug - 20:36:00 10° SSW 20:41:40 82° WNW 20:47:54 10° NNE visible
12 Aug - 22:22:48 10° WNW 22:25:59 15° NW 22:29:17 10° N visible
13 Aug - 05:26:20 10° NNW 05:32:25 48° ENE 05:38:03 10° SE visible
13 Aug - 07:10:27 10° NW 07:15:15 24° WSW 07:19:45 10° SSW daylight
13 Aug - 20:01:57 10° SSW 20:07:33 70° ESE 20:13:42 10° NNE daylight
13 Aug - 21:47:13 10° W 21:51:27 20° NW 21:55:53 10° N visible
